www.pogodaiklimat.ru
ПОГОДА в Агуадилье
Время
и дата
20:50 16.01
06:50 17.01
07:50 17.01
08:50 17.01
09:50 17.01
10:50 17.01
11:50 17.01
12:50 17.01
13:50 17.01
14:50 17.01
15:50 17.01
16:50 17.01
17:50 17.01
18:50 17.01
19:50 17.01
06:50 18.01
07:50 18.01
08:50 18.01
10:50 18.01
11:50 18.01
12:50 18.01
13:50 18.01
14:50 18.01
15:50 18.01
16:50 18.01
17:50 18.01
18:50 18.01
19:50 18.01
20:50 18.01
21:50 18.01
06:50 19.01
07:50 19.01
08:50 19.01
09:50 19.01
10:50 19.01
11:50 19.01
12:50 19.01
13:50 19.01
14:50 19.01
15:50 19.01
16:50 19.01
17:50 19.01
18:50 19.01
19:50 19.01
20:50 19.01
21:50 19.01
22:50 19.01
06:50 20.01
Ветер
(напр.,м/с)
Видим. Явления Облачность Т
(С)
Тd
(С)
f
(%)
Тe
(С)
Тes
(С)
Комфортность P
(гПа)
Po
(гПа)
Тmin
(С)
Tmax
(С)
R
(мм)
R24
(мм)
S
(см)
штиль 0 16 км 5/5 1350 м +22.0 +22.0 100 +29 +29 очень
душно
1008.5
ЮВ 1 16 км ясно +20.0 +19.0 94 +24 +24 комфорт 1008.2
ЮВ 1 16 км ясно +22.0 +19.0 83 +27 +27 душно 1008.8
штиль 0 16 км ясно +24.0 +21.0 83 +30 +32 очень
душно
1009.5
штиль 0 16 км ясно +26.0 +21.0 74 +33 +38 очень
душно
1009.8
СВ 1 16 км ясно +28.0 +21.0 66 +35 +42 очень
душно
1009.8
С 1 16 км 5/5 1020 м +27.0 +21.0 70 +34 +40 очень
душно
1009.2
С 1 16 км 5/5 1350 м +28.0 +21.0 66 +35 +41 очень
душно
1008.2
С 1 16 км ясно +28.0 +21.0 66 +35 +46 очень
душно
1006.8
СВ 2 16 км ясно +28.0 +20.0 62 +34 +42 очень
душно
1006.1
СВ 2 16 км 8/8 1290 м +27.0 +21.0 70 +34 +35 очень
душно
1005.8
СВ 2 16 км 5/5 660 м +27.0 +22.0 74 +35 +36 очень
душно
1005.8
СВ 1 16 км 8/8 1380 м +26.0 +21.0 74 +33 +33 очень
душно
1006.1
СВ 1 16 км 10/10 1320 м +26.0 +22.0 79 +34 +34 очень
душно
1006.5
С 1 16 км 5/5 1260 м +25.0 +22.0 83 +32 +32 очень
душно
1007.2
штиль 0 16 км ясно +20.0 +18.0 88 +23 +23 комфорт 1008.5
штиль 0 16 км ясно +20.0 +18.0 88 +23 +23 комфорт 1009.2
В 1 16 км ясно +23.0 +19.0 78 +29 +30 очень
душно
1009.8
ЮВ 1 16 км ясно +28.0 +17.0 51 +32 +38 душно 1010.5
В 2 16 км ясно +28.0 +19.0 58 +33 +39 очень
душно
1009.5
В 3 16 км ясно +28.0 +20.0 62 +34 +39 очень
душно
1008.8
В 2
{3}
16 км ясно +28.0 +21.0 66 +35 +42 очень
душно
1008.2
В 2 16 км ясно +28.0 +20.0 62 +34 +42 очень
душно
1007.5
В 2 16 км ясно +27.0 +21.0 70 +34 +38 очень
душно
1007.5
В 3 16 км ясно +27.0 +21.0 70 +34 +36 очень
душно
1007.5
В 2 16 км ясно +26.0 +21.0 74 +33 +33 очень
душно
1007.8
В 1 16 км 5/5 1500 м +24.0 +21.0 83 +30 +30 очень
душно
1008.2
В 1 16 км 8/8 630 м +24.0 +22.0 89 +31 +31 очень
душно
1008.5
В 2 16 км 8/8 570 м +25.0 +22.0 83 +32 +32 очень
душно
1009.5
В 2 16 км 8/8 570 м +25.0 +22.0 83 +32 +32 очень
душно
1009.5
ЮВ 1 16 км ясно +21.0 +19.0 88 +26 +26 душно 1009.8
В 1 16 км ясно +22.0 +19.0 83 +27 +27 душно 1010.5
ЮВ 2 16 км ясно +24.0 +21.0 83 +30 +31 очень
душно
1011.5
В 3
{4}
16 км ясно +27.0 +21.0 70 +34 +36 очень
душно
1011.9
В 3
{4}
16 км 5/5 720 м +27.0 +21.0 70 +34 +36 очень
душно
1011.9
В 3
{4}
16 км 5/5 780 м +28.0 +21.0 66 +35 +37 очень
душно
1011.5
В 3 16 км ясно +28.0 +22.0 70 +36 +40 очень
душно
1010.8
В 4
{5}
16 км ясно +28.0 +21.0 66 +35 +38 очень
душно
1009.5
В 4
{5}
16 км ясно +29.0 +19.0 55 +34 +36 очень
душно
1009.2
В 4
{4}
16 км 5/5 1500 м +28.0 +21.0 66 +35 +36 очень
душно
1008.8
В 3
{4}
16 км ясно +27.0 +21.0 70 +34 +35 очень
душно
1009.2
В 2
{4}
16 км 5/5 630 м +26.0 +21.0 74 +33 +33 очень
душно
1009.8
В 1 16 км 5/5 630 м +25.0 +21.0 78 +31 +31 очень
душно
1010.2
В 2
{3}
16 км 5/5 570 м +24.0 +21.0 83 +30 +30 очень
душно
1010.5
В 3
{4}
16 км ясно +24.0 +21.0 83 +30 +30 очень
душно
1010.5
В 2
{3}
16 км ясно +24.0 +21.0 83 +30 +30 очень
душно
1010.8
В 1 16 км ясно +23.0 +21.0 89 +31 +31 очень
душно
1011.2
В 1 16 км ясно +21.0 +19.0 88 +26 +26 душно 1009.8
Местоположение метеостанции Rafael Hernandez Airport: широта 18.5000 долгота -67.1333 высота над уровнем моря 72 м.
В архиве по умолчанию представлена погода в Агуадилье за последние 1-2 суток. Обновление информации о фактической погоде в базе происходит ежечасно! Архивные данные за месяц целиком и за предыдущие месяцы Вы можете получить, выбрав интересующий диапазон дат из раскрывающегося списка и нажав кнопку "Ввод!".
Внимание! Архив погоды МЕТАР в базе сайта по станциям, не включенным в климатический монитор, хранится не более 60 дней. Нет смысла пытаться выбрать более раннюю дату.
*Определитесь, кто Вы:
Внимание! Время в таблицах - местное (без учета летнего времени). Для получения всемирного времени необходимо вычесть поправку, которая равна -4 ч.
Смотрите также архив погоды в соседних городах и на ближайших метеорологических станциях:
Партнеры нашего сайта:      
Пояснения к столбцам:
  • Ветер - указаны скорость ветра в м/с - средняя за 10 мин, порывы в срок и между сроками (в фигурных скобках) и направление, откуда дует ветер: С - северный,
  • СВ - северо-восточный, В - восточный, ЮВ - юго-восточный, Ю - южный, ЮЗ - юго-западный, З - западный, СЗ - северо-западный.
  • Видимость - горизонтальная дальность видимости в метрах или километрах. При видимости от 1 до 10 км при отсутствии осадков обычно наблюдается дымка, при ухудшении видимости до 1 км и менее - туман. В сухую погоду видимость может ухудшаться дымом, пылью или мглою.
  • Явления - указаны атмосферные явления, наблюдавшиеся в срок или в последний час перед сроком; фигурными скобками обозначены явления, наблюдавшиеся между сроками (за 1-3 часа до срока); квадратными скобками обозначены град или гололедные отложения с указанием их диаметра в мм.
  • Облачность - указаны через наклонную черту общая и нижняя облачность в баллах и высота нижней границы облаков в метрах; квадратными скобками обозначены формы облаков: Ci - перистые, Cs - перисто-слоистые, Cc - перисто-кучевые, Ac - высококучевые, As - высокослоистые, Sc - слоисто-кучевые, Ns - слоисто-дождевые, Cu - кучевые, Cb - кучево-дождевые. Подробнее классификацию облаков см. в Атласе облаков (PDF).
  • T - Температура воздуха - температура, измеренная на высоте 2 м над землей.
  • Td - Температура точки росы - температура, при понижении до которой содержащийся в воздухе водяной пар достигнет насыщения.
  • f - Относительная влажность воздуха - влажноcть воздуха, измеренная на высоте 2 м над землей.
  • Te - Эффективная температура - температура, которую ощущает одетый по сезону человек в тени. Характеристика душности погоды. При расчете учитывается влияние влажности воздуха и скорости ветра на теплоощущения человека.
  • Tes - Эффективная температура на солнце - температура, которую ощущает человек, с поправкой на солнечный нагрев. Характеристика знойности погоды. Зависит от высоты солнца над горизонтом, облачности и скорости ветра. Ночью, в пасмурную погоду, а также при ветре 12 м/с и более поправка равна нулю.
  • P - Атмосферное давление - приведенное к уровню моря атмосферное давление.
  • Po - Атмосферное давление - измеренное на уровне метеостанции атмосферное давление.
  • Tmin - Минимальная температура - минимум температуры воздуха на высоте 2 м над землей.
  • Tmax - Максимальная температура - максимум температуры воздуха на высоте 2 м над землей.
  • R - Количество осадков - Количество выпавших осадков за период времени, мм. При наведении курсора мыши на число - период времени, за который выпало указанное количество осадков.
  • R24 - Количество осадков - Количество выпавших осадков за 24 часа, мм.
  • S - Снежный покров - Высота снежного покрова, см. При наведении курсора мыши на число - состояние снежного покрова и степень покрытия местности в баллах.